Year,Month,Day,Hour,Minute,Value (Times are PST for windspeed in km/hr)
2012,10,16,00,00,28.10
2012,10,16,00,01,22.10
2012,10,16,00,02,21.70
2012,10,16,00,03,26.20
2012,10,16,00,04,21.20
2012,10,16,00,05,17.60
2012,10,16,00,06,16.50
2012,10,16,00,07,20.60
2012,10,16,00,08,24.70
2012,10,16,00,09,38.50
2012,10,16,00,10,27.80
2012,10,16,00,11,35.50
2012,10,16,00,12,28.90
2012,10,16,00,13,18.90
2012,10,16,00,14,22.70
2012,10,16,00,15,27.00
2012,10,16,00,16,27.90
2012,10,16,00,17,29.40
2012,10,16,00,18,24.90
2012,10,16,00,19,19.50
2012,10,16,00,20,19.60
2012,10,16,00,21,30.40
2012,10,16,00,22,28.50
2012,10,16,00,23,32.00
2012,10,16,00,24,18.00
2012,10,16,00,25,17.50
2012,10,16,00,26,29.50
2012,10,16,00,27,32.90
2012,10,16,00,28,17.40
2012,10,16,00,29,19.10
2012,10,16,00,30,27.10
2012,10,16,00,31,22.30
2012,10,16,00,32,33.00
2012,10,16,00,33,26.40
2012,10,16,00,34,26.70
2012,10,16,00,35,24.80
2012,10,16,00,36,21.60
2012,10,16,00,37,28.70
2012,10,16,00,38,22.10
2012,10,16,00,39,22.90
2012,10,16,00,40,26.70
2012,10,16,00,41,22.00
2012,10,16,00,42,31.50
2012,10,16,00,43,23.80
2012,10,16,00,44,31.10
2012,10,16,00,45,25.60
2012,10,16,00,46,29.50
2012,10,16,00,47,21.60
2012,10,16,00,48,23.80
2012,10,16,00,49,26.00
2012,10,16,00,50,26.10
2012,10,16,00,51,28.60
2012,10,16,00,52,29.00
2012,10,16,00,53,22.60
2012,10,16,00,54,22.90
2012,10,16,00,55,17.20
2012,10,16,00,56,20.20
2012,10,16,00,57,22.30
2012,10,16,00,58,24.70
2012,10,16,00,59,20.10
2012,10,16,01,00,19.20
2012,10,16,01,01,17.40
2012,10,16,01,02,25.70
2012,10,16,01,03,19.30
2012,10,16,01,04,24.30
2012,10,16,01,05,24.10
2012,10,16,01,06,28.60
2012,10,16,01,07,28.00
2012,10,16,01,08,28.70
2012,10,16,01,09,17.60
2012,10,16,01,10,20.60
2012,10,16,01,11,26.60
2012,10,16,01,12,22.40
2012,10,16,01,13,15.50
2012,10,16,01,14,19.90
2012,10,16,01,15,24.40
2012,10,16,01,16,22.70
2012,10,16,01,17,12.70
2012,10,16,01,18,16.60
2012,10,16,01,19,23.30
2012,10,16,01,20,20.00
2012,10,16,01,21,19.30
2012,10,16,01,22,23.90
2012,10,16,01,23,15.40
2012,10,16,01,24,14.20
2012,10,16,01,25,28.20
2012,10,16,01,26,20.80
2012,10,16,01,27,18.60
2012,10,16,01,28,25.30
2012,10,16,01,29,14.60
2012,10,16,01,30,14.70
2012,10,16,01,31,9.50
2012,10,16,01,32,13.40
2012,10,16,01,33,18.90
2012,10,16,01,34,20.60
2012,10,16,01,35,14.30
2012,10,16,01,36,15.40
2012,10,16,01,37,17.10
2012,10,16,01,38,18.90
2012,10,16,01,39,22.50
2012,10,16,01,40,17.20
2012,10,16,01,41,27.20
2012,10,16,01,42,11.30
2012,10,16,01,43,26.20
2012,10,16,01,44,24.90
2012,10,16,01,45,15.80
2012,10,16,01,46,22.80
2012,10,16,01,47,26.60
2012,10,16,01,48,25.30
2012,10,16,01,49,21.40
2012,10,16,01,50,19.60
2012,10,16,01,51,13.40
2012,10,16,01,52,14.50
2012,10,16,01,53,13.30
2012,10,16,01,54,23.70
2012,10,16,01,55,15.70
2012,10,16,01,56,13.20
2012,10,16,01,57,19.70
2012,10,16,01,58,26.50
2012,10,16,01,59,22.90
2012,10,16,02,00,29.00
2012,10,16,02,01,29.00
2012,10,16,02,02,29.00
2012,10,16,02,03,29.00
2012,10,16,02,04,29.00
2012,10,16,02,05,29.00
2012,10,16,02,06,29.00
2012,10,16,02,07,29.00
2012,10,16,02,08,29.00
2012,10,16,02,09,29.00
2012,10,16,05,15,18.20
2012,10,16,05,16,16.20
2012,10,16,05,17,8.50
2012,10,16,05,18,13.90
2012,10,16,05,19,16.30
2012,10,16,05,20,10.10
2012,10,16,05,21,11.90
2012,10,16,05,22,13.60
2012,10,16,05,23,13.60
2012,10,16,05,24,17.20
2012,10,16,05,25,16.50
2012,10,16,05,26,11.50
2012,10,16,05,27,8.60
2012,10,16,05,28,12.60
2012,10,16,05,29,14.30
2012,10,16,05,30,21.40
2012,10,16,05,31,13.50
2012,10,16,05,32,16.50
2012,10,16,05,33,15.80
2012,10,16,05,34,17.20
2012,10,16,05,35,15.90
2012,10,16,05,36,20.60
2012,10,16,05,37,16.30
2012,10,16,05,38,10.10
2012,10,16,05,39,8.60
2012,10,16,05,40,23.20
2012,10,16,05,41,17.40
2012,10,16,05,42,18.80
2012,10,16,05,43,22.10
2012,10,16,05,44,13.10
2012,10,16,05,45,17.00
2012,10,16,05,46,18.00
2012,10,16,05,47,13.50
2012,10,16,05,48,13.80
2012,10,16,05,49,12.80
2012,10,16,05,50,11.00
2012,10,16,05,51,17.00
2012,10,16,05,52,22.70
2012,10,16,05,53,20.90
2012,10,16,05,54,14.50
2012,10,16,05,55,14.50
2012,10,16,05,56,14.50
2012,10,16,05,57,14.40
2012,10,16,05,58,10.80
2012,10,16,05,59,8.60
2012,10,16,06,00,18.60
2012,10,16,06,01,13.10
2012,10,16,06,02,11.80
2012,10,16,06,03,17.90
2012,10,16,06,04,12.20
2012,10,16,06,05,13.00
2012,10,16,06,06,14.30
2012,10,16,06,07,8.70
2012,10,16,06,08,3.50
2012,10,16,06,09,15.30
2012,10,16,06,10,11.00
2012,10,16,06,11,6.70
2012,10,16,06,12,6.40
2012,10,16,06,13,14.40
2012,10,16,06,14,14.00
2012,10,16,06,15,11.30
2012,10,16,06,16,6.20
2012,10,16,06,17,8.10
2012,10,16,06,18,10.10
2012,10,16,06,19,12.60
2012,10,16,06,20,15.40
2012,10,16,06,21,10.50
2012,10,16,06,22,14.70
2012,10,16,06,23,17.70
2012,10,16,06,24,11.30
2012,10,16,06,25,7.90
2012,10,16,06,26,10.80
2012,10,16,06,27,11.60
2012,10,16,06,28,8.70
2012,10,16,06,29,14.40
2012,10,16,06,30,17.00
2012,10,16,06,31,14.10
2012,10,16,06,32,18.40
2012,10,16,06,33,14.50
2012,10,16,06,34,12.70
2012,10,16,06,35,11.00
2012,10,16,06,36,10.50
2012,10,16,06,37,13.40
2012,10,16,06,38,10.50
2012,10,16,06,39,16.20
2012,10,16,06,40,17.20
2012,10,16,06,41,16.00
2012,10,16,06,42,8.10
2012,10,16,06,43,5.60
2012,10,16,06,44,10.10
2012,10,16,06,45,11.90
2012,10,16,06,46,7.00
2012,10,16,06,47,12.60
2012,10,16,06,48,12.60
2012,10,16,06,49,18.80
2012,10,16,06,50,12.70
2012,10,16,06,51,12.10
2012,10,16,06,52,7.70
2012,10,16,06,53,10.80
2012,10,16,06,54,11.10
2012,10,16,06,55,11.30
2012,10,16,06,56,12.40
2012,10,16,06,57,15.90
2012,10,16,06,58,17.10
2012,10,16,06,59,10.50
2012,10,16,07,00,16.30
2012,10,16,07,01,14.00
2012,10,16,07,02,16.80
2012,10,16,07,03,9.90
2012,10,16,07,04,12.90
2012,10,16,07,05,21.80
2012,10,16,07,06,19.60
2012,10,16,07,07,13.90
2012,10,16,07,08,11.80
2012,10,16,07,09,14.60
2012,10,16,07,10,14.60
2012,10,16,07,11,16.90
2012,10,16,07,12,17.60
2012,10,16,07,13,11.30
2012,10,16,07,14,15.10
2012,10,16,07,15,12.40
2012,10,16,07,16,12.10
2012,10,16,07,17,15.60
2012,10,16,07,18,16.30
2012,10,16,07,19,10.70
2012,10,16,07,20,7.70
2012,10,16,07,21,7.90
2012,10,16,07,22,10.50
2012,10,16,07,23,11.40
2012,10,16,07,24,11.70
2012,10,16,07,25,12.60
2012,10,16,07,26,8.40
2012,10,16,07,27,11.30
2012,10,16,07,28,13.30
2012,10,16,07,29,11.20
2012,10,16,07,30,14.60
2012,10,16,07,31,12.60
2012,10,16,07,32,10.40
2012,10,16,07,33,13.80
2012,10,16,07,34,11.30
2012,10,16,07,35,12.70
2012,10,16,07,36,12.90
2012,10,16,07,37,6.70
2012,10,16,07,38,9.30
2012,10,16,07,39,8.90
2012,10,16,07,40,8.50
2012,10,16,07,41,14.10
2012,10,16,07,42,15.50
2012,10,16,07,43,14.90
2012,10,16,07,44,16.70
2012,10,16,07,45,12.70
2012,10,16,07,46,12.90
2012,10,16,07,47,9.10
2012,10,16,07,48,12.20
2012,10,16,07,49,10.50
2012,10,16,07,50,12.30
2012,10,16,07,51,10.90
2012,10,16,07,52,9.40
2012,10,16,07,53,10.20
2012,10,16,07,54,10.30
2012,10,16,07,55,9.40
2012,10,16,07,56,8.10
2012,10,16,07,57,13.80
2012,10,16,07,58,12.20
2012,10,16,07,59,15.10
2012,10,16,08,00,12.20
2012,10,16,08,01,15.30
2012,10,16,08,02,8.50
2012,10,16,08,03,11.60
2012,10,16,08,04,16.80
2012,10,16,08,05,14.60
2012,10,16,08,06,9.40
2012,10,16,08,07,11.30
2012,10,16,08,08,10.50
2012,10,16,08,09,14.40
2012,10,16,08,10,12.60
2012,10,16,08,11,19.60
2012,10,16,08,12,14.60
2012,10,16,08,13,23.00
2012,10,16,08,14,25.00
2012,10,16,08,15,18.40
2012,10,16,08,16,8.90
2012,10,16,08,17,10.00
2012,10,16,08,18,15.50
2012,10,16,08,19,10.90
2012,10,16,08,20,15.90
2012,10,16,08,21,13.70
2012,10,16,08,22,9.10
2012,10,16,08,23,9.60
2012,10,16,08,24,17.90
2012,10,16,08,25,14.60
2012,10,16,08,26,15.50
2012,10,16,08,27,14.30
2012,10,16,08,28,9.30
2012,10,16,08,29,11.30
2012,10,16,08,30,12.30
2012,10,16,08,31,7.00
2012,10,16,08,32,10.40
2012,10,16,08,33,13.60
2012,10,16,08,34,13.60
2012,10,16,08,35,12.80
2012,10,16,08,36,12.80
2012,10,16,08,37,11.70
2012,10,16,08,38,15.40
2012,10,16,08,39,15.50
2012,10,16,08,40,15.40
2012,10,16,08,41,17.80
2012,10,16,08,42,10.60
2012,10,16,08,43,12.70
2012,10,16,08,44,13.10
2012,10,16,08,45,15.80
2012,10,16,08,46,14.30
2012,10,16,08,47,19.10
2012,10,16,08,48,11.50
2012,10,16,08,49,13.80
2012,10,16,08,50,17.40
2012,10,16,08,51,16.70
2012,10,16,08,52,12.40
2012,10,16,08,53,14.20
2012,10,16,08,54,13.70
2012,10,16,08,55,11.50
2012,10,16,08,56,11.50
2012,10,16,08,57,9.30
2012,10,16,08,58,12.60
2012,10,16,08,59,7.80
2012,10,16,09,00,12.50
2012,10,16,09,01,10.50
2012,10,16,09,02,12.00
2012,10,16,09,03,15.80
2012,10,16,09,04,11.00
2012,10,16,09,05,15.30
2012,10,16,09,06,14.80
2012,10,16,09,07,16.20
2012,10,16,09,08,13.40
2012,10,16,09,09,17.90
2012,10,16,09,10,20.00
2012,10,16,09,11,14.60
2012,10,16,09,12,11.50
2012,10,16,09,13,13.40
2012,10,16,09,14,9.00
2012,10,16,09,15,7.90
2012,10,16,09,16,14.40
2012,10,16,09,17,10.30
2012,10,16,09,18,14.00
2012,10,16,09,19,12.60
2012,10,16,09,20,11.80
2012,10,16,09,21,9.60
2012,10,16,09,22,6.70
2012,10,16,09,23,9.60
2012,10,16,09,24,9.10
2012,10,16,09,25,14.60
2012,10,16,09,26,10.20
2012,10,16,09,27,9.30
2012,10,16,09,28,10.60
2012,10,16,09,29,8.10
2012,10,16,09,30,9.40
2012,10,16,09,31,15.00
2012,10,16,09,32,8.90
2012,10,16,09,33,8.60
2012,10,16,09,34,7.70
2012,10,16,09,35,8.30
2012,10,16,09,36,10.00
2012,10,16,09,37,14.60
2012,10,16,09,38,10.10
2012,10,16,09,39,5.90
2012,10,16,09,40,7.80
2012,10,16,09,41,8.00
2012,10,16,09,42,7.90
2012,10,16,09,43,9.00
2012,10,16,09,44,10.80
2012,10,16,09,45,9.50
2012,10,16,09,46,15.10
2012,10,16,09,47,10.70
2012,10,16,09,48,6.40
2012,10,16,09,49,10.60
2012,10,16,09,50,10.00
2012,10,16,09,51,14.60
2012,10,16,09,52,17.90
2012,10,16,09,53,11.40
2012,10,16,09,54,7.70
2012,10,16,09,55,10.90
2012,10,16,09,56,15.10
2012,10,16,09,57,10.20
2012,10,16,09,58,16.80
2012,10,16,09,59,18.60
2012,10,16,10,00,10.60
2012,10,16,10,01,12.00
2012,10,16,10,02,14.60
2012,10,16,10,03,17.50
2012,10,16,10,04,14.00
2012,10,16,10,05,10.20
2012,10,16,10,06,15.40
2012,10,16,10,07,13.70
2012,10,16,10,08,9.50
2012,10,16,10,09,15.50
2012,10,16,10,10,13.20
2012,10,16,10,11,18.30
2012,10,16,10,12,13.80
2012,10,16,10,13,18.90
2012,10,16,10,14,26.50
2012,10,16,10,15,12.20
2012,10,16,10,16,15.40
2012,10,16,10,17,10.00
2012,10,16,10,18,18.90
2012,10,16,10,19,19.20
2012,10,16,10,20,13.60
2012,10,16,10,21,16.30
2012,10,16,10,22,13.60
2012,10,16,10,23,14.50
2012,10,16,10,24,12.60
2012,10,16,10,25,13.60
2012,10,16,10,26,16.20
2012,10,16,10,27,14.10
2012,10,16,10,28,8.70
2012,10,16,10,29,17.70
2012,10,16,10,30,11.20
2012,10,16,10,31,17.90
2012,10,16,10,32,22.60
2012,10,16,10,33,10.70
2012,10,16,10,34,14.90
2012,10,16,10,35,16.20
2012,10,16,10,36,12.30
2012,10,16,10,37,24.70
2012,10,16,10,38,23.80
2012,10,16,10,39,10.10
2012,10,16,10,40,11.60
2012,10,16,10,41,19.10
2012,10,16,10,42,17.10
2012,10,16,10,43,10.70
2012,10,16,10,44,16.20
2012,10,16,10,45,17.10
2012,10,16,10,46,7.40
2012,10,16,10,47,10.30
2012,10,16,10,48,10.10
2012,10,16,10,49,17.00
2012,10,16,10,50,18.10
2012,10,16,10,51,16.70
2012,10,16,10,52,13.00
2012,10,16,10,53,24.90
2012,10,16,10,54,13.50
2012,10,16,10,55,15.00
2012,10,16,10,56,19.60
2012,10,16,10,57,9.50
2012,10,16,10,58,7.20
2012,10,16,10,59,14.20
2012,10,16,11,00,13.90
2012,10,16,11,01,11.00
2012,10,16,11,02,23.60
2012,10,16,11,03,14.20
2012,10,16,11,04,14.50
2012,10,16,11,05,15.50
2012,10,16,11,06,14.50
2012,10,16,11,07,16.90
2012,10,16,11,08,17.70
2012,10,16,11,09,21.00
2012,10,16,11,10,19.40
2012,10,16,11,11,14.50
2012,10,16,11,12,17.40
2012,10,16,11,13,10.90
2012,10,16,11,14,20.80
2012,10,16,11,15,14.80
2012,10,16,11,16,15.90
2012,10,16,11,17,14.70
2012,10,16,11,18,10.50
2012,10,16,11,19,11.50
2012,10,16,11,20,12.10
2012,10,16,11,21,12.50
2012,10,16,11,22,7.60
2012,10,16,11,23,7.10
2012,10,16,11,24,10.60
2012,10,16,11,25,17.60
2012,10,16,11,26,17.00
2012,10,16,11,27,8.80
2012,10,16,11,28,16.40
2012,10,16,11,29,13.80
2012,10,16,11,30,15.50
2012,10,16,11,31,12.80
2012,10,16,11,32,14.20
2012,10,16,11,33,13.20
2012,10,16,11,34,12.40
2012,10,16,11,35,13.80
2012,10,16,11,36,14.20
2012,10,16,11,37,18.80
2012,10,16,11,38,18.80
2012,10,16,11,39,17.40
2012,10,16,11,40,14.30
2012,10,16,11,41,16.40
2012,10,16,11,42,13.30
2012,10,16,11,43,16.70
2012,10,16,11,44,16.50
2012,10,16,11,45,14.70
2012,10,16,11,46,14.20
2012,10,16,11,47,9.70
2012,10,16,11,48,13.10
2012,10,16,11,49,10.50
2012,10,16,11,50,12.90
2012,10,16,11,51,10.00
2012,10,16,11,52,16.20
2012,10,16,11,53,18.40
2012,10,16,11,54,13.40
2012,10,16,11,55,18.60
2012,10,16,11,56,12.50
2012,10,16,11,57,15.20
2012,10,16,11,58,13.70
2012,10,16,11,59,25.30
2012,10,16,12,00,21.20
2012,10,16,12,01,19.60
2012,10,16,12,02,12.60
2012,10,16,12,03,11.80
2012,10,16,12,04,18.00
2012,10,16,12,05,16.50
2012,10,16,12,06,12.50
2012,10,16,12,07,26.40
2012,10,16,12,08,20.10
2012,10,16,12,09,17.60
2012,10,16,12,10,22.50
2012,10,16,12,11,22.40
2012,10,16,12,12,24.30
2012,10,16,12,13,22.80
2012,10,16,12,14,21.50
2012,10,16,12,15,17.10
2012,10,16,12,16,18.20
2012,10,16,12,17,15.60
2012,10,16,12,18,14.50
2012,10,16,12,19,17.10
2012,10,16,12,20,12.40
2012,10,16,12,21,8.50
2012,10,16,12,22,13.00
2012,10,16,12,23,12.20
2012,10,16,12,24,7.70
2012,10,16,12,25,8.60
2012,10,16,12,26,14.20
2012,10,16,12,27,12.70
2012,10,16,12,28,12.60
2012,10,16,12,29,13.60
2012,10,16,12,30,15.90
2012,10,16,12,31,11.40
2012,10,16,12,32,14.20
2012,10,16,12,33,14.70
2012,10,16,12,34,13.30
2012,10,16,12,35,9.30
2012,10,16,12,36,11.40
2012,10,16,12,37,11.80
2012,10,16,12,38,7.90
2012,10,16,12,39,9.50
2012,10,16,12,40,12.60
2012,10,16,12,41,6.10
2012,10,16,12,42,8.20
2012,10,16,12,43,10.90
2012,10,16,12,44,11.20
2012,10,16,12,45,11.50
2012,10,16,12,46,11.60
2012,10,16,12,47,15.40
2012,10,16,12,48,10.90
2012,10,16,12,49,15.20
2012,10,16,12,50,13.70
2012,10,16,12,51,11.10
2012,10,16,12,52,9.90
2012,10,16,12,53,8.40
2012,10,16,12,54,7.60
2012,10,16,12,55,11.20
2012,10,16,12,56,12.10
2012,10,16,12,57,14.30
2012,10,16,12,58,12.20
2012,10,16,12,59,11.70
2012,10,16,13,00,10.80
2012,10,16,13,01,10.50
2012,10,16,13,02,9.90
2012,10,16,13,03,6.90
2012,10,16,13,04,7.80
2012,10,16,13,05,9.90
2012,10,16,13,06,9.90
2012,10,16,13,07,11.10
2012,10,16,13,08,9.90
2012,10,16,13,09,7.20
2012,10,16,13,10,6.30
2012,10,16,13,11,8.10
2012,10,16,13,12,14.20
2012,10,16,13,13,13.50
2012,10,16,13,14,10.60
2012,10,16,13,15,5.20
2012,10,16,13,16,6.20
2012,10,16,13,17,6.70
2012,10,16,13,18,9.70
2012,10,16,13,19,13.20
2012,10,16,13,20,12.50
2012,10,16,13,21,13.60
2012,10,16,13,22,13.40
2012,10,16,13,23,16.20
2012,10,16,13,24,12.20
2012,10,16,13,25,17.70
2012,10,16,13,26,18.80
2012,10,16,13,27,17.10
2012,10,16,13,28,26.30
2012,10,16,13,29,20.30
2012,10,16,13,30,19.00
2012,10,16,13,31,21.70
2012,10,16,13,32,17.90
2012,10,16,13,33,20.90
2012,10,16,13,34,19.90
2012,10,16,13,35,15.00
2012,10,16,13,36,19.40
2012,10,16,13,37,19.20
2012,10,16,13,38,17.80
2012,10,16,13,39,14.80
2012,10,16,13,40,14.20
2012,10,16,13,41,14.70
2012,10,16,13,42,13.70
2012,10,16,13,43,20.20
2012,10,16,13,44,10.30
2012,10,16,13,45,13.00
2012,10,16,13,46,15.00
2012,10,16,13,47,15.00
2012,10,16,13,48,17.70
2012,10,16,13,49,22.50
2012,10,16,13,50,19.20
2012,10,16,13,51,14.20
2012,10,16,13,52,12.70
2012,10,16,13,53,12.70
2012,10,16,13,54,13.00
2012,10,16,13,55,13.80
2012,10,16,13,56,14.10
2012,10,16,13,57,17.50
2012,10,16,13,58,13.70
2012,10,16,13,59,14.90
2012,10,16,14,00,11.10
2012,10,16,14,01,15.50
2012,10,16,14,02,15.50
2012,10,16,14,03,11.20
2012,10,16,14,04,10.20
2012,10,16,14,05,9.70
2012,10,16,14,06,14.90
2012,10,16,14,07,11.60
2012,10,16,14,08,9.50
2012,10,16,14,09,15.30
2012,10,16,14,10,15.80
2012,10,16,14,11,10.90
2012,10,16,14,12,15.80
2012,10,16,14,13,11.20
2012,10,16,14,14,11.20
2012,10,16,14,15,15.80
2012,10,16,14,16,11.90
2012,10,16,14,17,19.50
2012,10,16,14,18,26.50
2012,10,16,14,19,16.30
2012,10,16,14,20,16.20
2012,10,16,14,21,18.60
2012,10,16,14,22,15.60
2012,10,16,14,23,13.30
2012,10,16,14,24,12.40
2012,10,16,14,25,12.60
2012,10,16,14,26,17.90
2012,10,16,14,27,16.20
2012,10,16,14,28,20.80
2012,10,16,14,29,20.60
2012,10,16,14,30,24.90
2012,10,16,14,31,20.60
2012,10,16,14,32,11.70
2012,10,16,14,33,19.00
2012,10,16,14,34,18.70
2012,10,16,14,35,16.60
2012,10,16,14,36,15.20
2012,10,16,14,37,20.10
2012,10,16,14,38,15.90
2012,10,16,14,39,15.40
2012,10,16,14,40,11.10
2012,10,16,14,41,15.80
2012,10,16,14,42,14.70
2012,10,16,14,43,13.50
2012,10,16,14,44,16.30
2012,10,16,14,45,22.40
2012,10,16,14,46,17.70
2012,10,16,14,47,23.40
2012,10,16,14,48,15.90
2012,10,16,14,49,19.10
2012,10,16,14,50,10.90
2012,10,16,14,51,18.30
2012,10,16,14,52,19.10
2012,10,16,14,53,16.50
2012,10,16,14,54,17.50
2012,10,16,14,55,24.30
2012,10,16,14,56,20.80
2012,10,16,14,57,19.20
2012,10,16,14,58,13.00
2012,10,16,14,59,18.50
2012,10,16,15,00,16.10
2012,10,16,15,01,10.30
2012,10,16,15,02,14.90
2012,10,16,15,03,15.90
2012,10,16,15,04,14.80
2012,10,16,15,05,16.40
2012,10,16,15,06,16.70
2012,10,16,15,07,14.90
2012,10,16,15,08,13.80
2012,10,16,15,09,14.60
2012,10,16,15,10,10.30
2012,10,16,15,11,13.80
2012,10,16,15,12,18.50
2012,10,16,15,13,13.50
2012,10,16,15,14,19.60
2012,10,16,15,15,13.00
2012,10,16,15,16,18.20
2012,10,16,15,17,11.20
2012,10,16,15,18,15.00
2012,10,16,15,19,14.80
2012,10,16,15,20,12.40
2012,10,16,15,21,18.10
2012,10,16,15,22,21.80
2012,10,16,15,23,12.60
2012,10,16,15,24,12.30
2012,10,16,15,25,13.80
2012,10,16,15,26,13.50
2012,10,16,15,27,13.60
2012,10,16,15,28,15.90
2012,10,16,15,29,12.70
2012,10,16,15,30,15.90
2012,10,16,15,31,11.90
2012,10,16,15,32,12.70
2012,10,16,15,33,13.00
2012,10,16,15,34,14.70
2012,10,16,15,35,13.90
2012,10,16,15,36,15.50
2012,10,16,15,37,11.70
2012,10,16,15,38,10.90
2012,10,16,15,39,16.30
2012,10,16,15,40,12.20
2012,10,16,15,41,18.10
2012,10,16,15,42,12.30
2012,10,16,15,43,13.60
2012,10,16,15,44,18.30
2012,10,16,15,45,21.40
2012,10,16,15,46,17.30
2012,10,16,15,47,16.70
2012,10,16,15,48,17.90
2012,10,16,15,49,14.40
2012,10,16,15,50,20.00
2012,10,16,15,51,10.80
2012,10,16,15,52,17.30
2012,10,16,15,53,20.20
2012,10,16,15,54,19.60
2012,10,16,15,55,17.10
2012,10,16,15,56,17.50
2012,10,16,15,57,16.30
2012,10,16,15,58,19.70
2012,10,16,15,59,17.70
2012,10,16,16,00,15.90
2012,10,16,16,01,9.00
2012,10,16,16,02,19.60
2012,10,16,16,03,19.60
2012,10,16,16,04,16.60
2012,10,16,16,05,21.40
2012,10,16,16,06,21.80
2012,10,16,16,07,23.70
2012,10,16,16,08,16.60
2012,10,16,16,09,15.60
2012,10,16,16,10,18.60
2012,10,16,16,11,25.60
2012,10,16,16,12,21.60
2012,10,16,16,13,21.80
2012,10,16,16,14,23.10
2012,10,16,16,15,22.40
2012,10,16,16,16,24.50
2012,10,16,16,17,20.50
2012,10,16,16,18,21.60
2012,10,16,16,19,17.40
2012,10,16,16,20,16.20
2012,10,16,16,21,22.20
2012,10,16,16,22,17.60
2012,10,16,16,23,15.70
2012,10,16,16,24,17.90
2012,10,16,16,25,18.10
2012,10,16,16,26,18.40
2012,10,16,16,27,23.30
2012,10,16,16,28,19.50
2012,10,16,16,29,26.60
2012,10,16,16,30,18.60
2012,10,16,16,31,12.00
2012,10,16,16,32,12.10
2012,10,16,16,33,11.10
2012,10,16,16,34,17.10
2012,10,16,16,35,14.70
2012,10,16,16,36,15.10
2012,10,16,16,37,17.30
2012,10,16,16,38,12.00
2012,10,16,16,39,15.70
2012,10,16,16,40,19.70
2012,10,16,16,41,17.90
2012,10,16,16,42,12.80
2012,10,16,16,43,22.10
2012,10,16,16,44,16.90
2012,10,16,16,45,17.50
2012,10,16,16,46,22.30
2012,10,16,16,47,18.70
2012,10,16,16,48,11.40
2012,10,16,16,49,12.90
2012,10,16,16,50,18.10
2012,10,16,16,51,17.10
2012,10,16,16,52,20.60
2012,10,16,16,53,20.30
2012,10,16,16,54,14.00
2012,10,16,16,55,21.30
2012,10,16,16,56,15.60
2012,10,16,16,57,18.70
2012,10,16,16,58,19.00
2012,10,16,16,59,17.70
2012,10,16,17,00,20.90
2012,10,16,17,01,23.20
2012,10,16,17,02,16.50
2012,10,16,17,03,21.20
2012,10,16,17,04,19.20
2012,10,16,17,05,12.20
2012,10,16,17,06,13.00
2012,10,16,17,07,17.20
2012,10,16,17,08,17.80
2012,10,16,17,09,16.70
2012,10,16,17,10,10.70
2012,10,16,17,11,15.40
2012,10,16,17,12,17.80
2012,10,16,17,13,19.90
2012,10,16,17,14,20.40
2012,10,16,17,15,20.10
2012,10,16,17,16,15.50
2012,10,16,17,17,13.80
2012,10,16,17,18,21.00
2012,10,16,17,19,12.40
2012,10,16,17,20,13.10
2012,10,16,17,21,17.10
2012,10,16,17,22,20.30
2012,10,16,17,23,18.00
2012,10,16,17,24,21.00
2012,10,16,17,25,18.90
2012,10,16,17,26,18.20
2012,10,16,17,27,12.40
2012,10,16,17,28,14.60
2012,10,16,17,29,19.20
2012,10,16,17,30,18.60
2012,10,16,17,31,17.60
2012,10,16,17,32,15.20
2012,10,16,17,33,7.60
2012,10,16,17,34,19.00
2012,10,16,17,35,12.20
2012,10,16,17,36,18.40
2012,10,16,17,37,13.60
2012,10,16,17,38,15.00
2012,10,16,17,39,13.20
2012,10,16,17,40,13.80
2012,10,16,17,41,10.30
2012,10,16,17,42,13.50
2012,10,16,17,43,11.10
2012,10,16,17,44,11.30
2012,10,16,17,45,13.70
2012,10,16,17,46,9.10
2012,10,16,17,47,6.90
2012,10,16,17,48,14.60
2012,10,16,17,49,12.40
2012,10,16,17,50,14.30
2012,10,16,17,51,12.90
2012,10,16,17,52,14.30
2012,10,16,17,53,16.90
2012,10,16,17,54,10.90
2012,10,16,17,55,10.90
2012,10,16,17,56,15.50
2012,10,16,17,57,9.00
2012,10,16,17,58,6.80
2012,10,16,17,59,12.60
2012,10,16,18,00,9.20
2012,10,16,18,01,8.70
2012,10,16,18,02,11.20
2012,10,16,18,03,8.30
2012,10,16,18,04,13.00
2012,10,16,18,05,12.60
2012,10,16,18,06,15.90
2012,10,16,18,07,13.60
2012,10,16,18,08,15.30
2012,10,16,18,09,5.30
2012,10,16,18,10,9.80
2012,10,16,18,11,9.00
2012,10,16,18,12,10.50
2012,10,16,18,13,16.50
2012,10,16,18,14,14.70
2012,10,16,18,15,10.10
2012,10,16,18,16,10.50
2012,10,16,18,17,13.90
2012,10,16,18,18,11.90
2012,10,16,18,19,8.70
2012,10,16,18,20,11.20
2012,10,16,18,21,17.50
2012,10,16,18,22,13.30
2012,10,16,18,23,11.50
2012,10,16,18,24,7.00
2012,10,16,18,25,7.60
2012,10,16,18,26,9.10
2012,10,16,18,27,11.30
2012,10,16,18,28,8.60
2012,10,16,18,29,13.30
2012,10,16,18,30,11.90
2012,10,16,18,31,6.80
2012,10,16,18,32,15.90
2012,10,16,18,33,6.50
2012,10,16,18,34,8.60
2012,10,16,18,35,9.10
2012,10,16,18,36,6.40
2012,10,16,18,37,8.80
2012,10,16,18,38,12.00
2012,10,16,18,39,15.20
2012,10,16,18,40,11.30
2012,10,16,18,41,13.90
2012,10,16,18,42,11.90
2012,10,16,18,43,9.10
2012,10,16,18,44,15.20
2012,10,16,18,45,15.50
2012,10,16,18,46,14.00
2012,10,16,18,47,15.60
2012,10,16,18,48,14.20
2012,10,16,18,49,10.50
2012,10,16,18,50,8.50
2012,10,16,18,51,12.60
2012,10,16,18,52,10.10
2012,10,16,18,53,8.40
2012,10,16,18,54,10.40
2012,10,16,18,55,9.10
2012,10,16,18,56,12.20
2012,10,16,18,57,13.10
2012,10,16,18,58,16.10
2012,10,16,18,59,12.10
2012,10,16,19,00,11.40
2012,10,16,19,01,11.90
2012,10,16,19,02,13.50
2012,10,16,19,03,14.60
2012,10,16,19,04,13.40
2012,10,16,19,05,8.00
2012,10,16,19,06,7.90
2012,10,16,19,07,8.80
2012,10,16,19,08,4.40
2012,10,16,19,09,10.30
2012,10,16,19,10,8.80
2012,10,16,19,11,9.30
2012,10,16,19,12,11.40
2012,10,16,19,13,10.70
2012,10,16,19,14,12.40
2012,10,16,19,15,7.30
2012,10,16,19,16,6.40
2012,10,16,19,17,14.20
2012,10,16,19,18,7.10
2012,10,16,19,19,9.70
2012,10,16,19,20,8.30
2012,10,16,19,21,10.70
2012,10,16,19,22,10.10
2012,10,16,19,23,10.80
2012,10,16,19,24,7.40
2012,10,16,19,25,8.50
2012,10,16,19,26,8.30
2012,10,16,19,27,12.00
2012,10,16,19,28,11.30
2012,10,16,19,29,7.90
2012,10,16,19,30,8.90
2012,10,16,19,31,7.50
2012,10,16,19,32,7.80
2012,10,16,19,33,6.50
2012,10,16,19,34,13.80
2012,10,16,19,35,10.40
2012,10,16,19,36,8.60
2012,10,16,19,37,9.90
2012,10,16,19,38,12.40
2012,10,16,19,39,14.90
2012,10,16,19,40,10.80
2012,10,16,19,41,8.70
2012,10,16,19,42,7.70
2012,10,16,19,43,12.50
2012,10,16,19,44,12.20
2012,10,16,19,45,9.90
2012,10,16,19,46,12.10
2012,10,16,19,47,12.50
2012,10,16,19,48,18.50
2012,10,16,19,49,12.30
2012,10,16,19,50,5.90
2012,10,16,19,51,10.90
2012,10,16,19,52,9.60
2012,10,16,19,53,15.10
2012,10,16,19,54,12.80
2012,10,16,19,55,12.30
2012,10,16,19,56,12.00
2012,10,16,19,57,10.60
2012,10,16,19,58,10.00
2012,10,16,19,59,13.60
2012,10,16,20,00,12.80
2012,10,16,20,01,10.50
2012,10,16,20,02,12.30
2012,10,16,20,03,6.60
2012,10,16,20,04,10.70
2012,10,16,20,05,10.50
2012,10,16,20,06,11.40
2012,10,16,20,07,7.40
2012,10,16,20,08,6.90
2012,10,16,20,09,8.10
2012,10,16,20,10,8.20
2012,10,16,20,11,3.50
2012,10,16,20,12,7.70
2012,10,16,20,13,10.00
2012,10,16,20,14,8.10
2012,10,16,20,15,7.70
2012,10,16,20,16,10.80
2012,10,16,20,17,6.40
2012,10,16,20,18,3.50
2012,10,16,20,19,5.20
2012,10,16,20,20,8.30
2012,10,16,20,21,8.70
2012,10,16,20,22,4.20
2012,10,16,20,23,5.00
2012,10,16,20,24,8.80
2012,10,16,20,25,11.00
2012,10,16,20,26,12.60
2012,10,16,20,27,8.10
2012,10,16,20,28,8.40
2012,10,16,20,29,5.30
2012,10,16,20,30,8.60
2012,10,16,20,31,9.10